Location: Izdebno
(52.6670°N, 16.2170°E)
Time: 11:05:45
(UTC+01:00)

Transit 2A - Pass Details

Date: 30 January 2023
Orbit: 591 x 964 km, 66.7° (Epoch: 21 March)

Event Time Altitude Azimuth Distance (km) Brightness Sun altitude
Rises 17:59:23 0° 200° (SSW) 2,988 9.5 -12.6°
Reaches altitude 10° 18:01:37 10° 195° (SSW) 2,128 8.7 -12.9°
Maximum altitude 18:06:18 51° 120° (ESE) 923 6.1 -13.6°
Enters shadow 18:10:18 17° 50° (NE) 1,924 7.6 -14.2°
Drops below altitude 10° 18:11:32 10° 46° (NE) 2,379 - -14.4°
Sets 18:14:09 0° 42° (NE) 3,378 - -14.8°
